Other Public Products
Issued by NWS Grand Forks, ND

Home | Current Version | Previous Version | Text Only | Print | Product List | Glossary Off
Versions: 1 2 3 4 5 6 7 8 9 10 11 12 13 14 15 16 17 18 19 20 21 22 23 24 25 26 27 28 29 30 31 32 33 34 35 36 37 38 39 40 41 42 43 44 45 46 47 48 49 50

000
FPUS83 KFGF 292010
OPUFGF
PRAIRIE TO PINES WEATHER ROUNDUP
NATIONAL WEATHER SERVICE EASTERN NORTH DAKOTA/GRAND FORKS ND
300 PM CDT WED OCT 29 2014

 **SATELLITE DATA USED TO AUGMENT SKY COVER AT AUTOMATED STATIONS**
 *****  WEATHER ACROSS EASTERN NORTH DAKOTA  *****

CITY           SKY/WX    TMP DP  RH WIND       PRES   REMARKS
GRAND FORKS    PTSUNNY   40  27  59 S6        30.05F
GRAND FORKS AF CLOUDY    41  27  58 S7        30.04F
GRAND CITY NWS   N/A     39 N/A N/A S12         N/A
BUXTON         NOT AVBL
DEVILS LAKE    CLOUDY    43  27  52 S14       29.95F
FARGO          MOSUNNY   42  29  59 S7        30.06F
WAHPETON ARPT  CLEAR     41  28  60 S7        30.08F
$$

 *****  WEATHER ACROSS CENTRAL AND WESTERN NORTH DAKOTA  *****

CITY           SKY/WX    TMP DP  RH WIND       PRES   REMARKS
JAMESTOWN      CLOUDY    45  30  55 S13       29.98F
BISMARCK       CLOUDY    50  32  50 S9        29.95F
MINOT          PTSUNNY   44  30  57 S13       29.87F
MINOT AFB      PTSUNNY   43  32  64 S14       29.86F
GARRISON         N/A     42  31  64 S10       29.88F
WILLISTON      CLOUDY    41  32  70 SW8       29.87F
DICKINSON      CLOUDY    47  40  76 SW9       29.89F
HETTINGER      CLOUDY    50  34  54 SW6       29.94F
$$

 *****  OTHER OBSERVATIONS NORTHEAST NORTH DAKOTA  *****

CITY           SKY/WX    TMP DP  RH WIND       PRES   REMARKS
WALHALLA         N/A     39  28  65 S6        30.02F
LANGDON        MOCLDY    39  28  65 S9        29.98F
CAVALIER       MOCLDY    39  28  65 S6        30.03F
GRAFTON        MOCLDY    39  28  65 SW6       30.05F
CANDO          CLOUDY    41  32  70 S15       29.95F
FORT TOTTEN      N/A     42  29  60 S9        29.95S
ROLLA          CLOUDY    41  28  60 SE14      29.93F
RUGBY          FAIR      45  30  57 S15       29.91F
 ***** THE ABOVE OBSERVATIONS ARE NON NWS ARE NOT QUALITY
        CONTROLLED AND MAY MIS-REPORT RAIN FOR SNOW...
$$

 *****  OTHER OBSERVATIONS SOUTHEAST NORTH DAKOTA *****

CITY           SKY/WX    TMP DP  RH WIND       PRES   REMARKS
COOPERSTOWN    NOT AVBL
VALLEY CITY    FAIR      41  32  70 S12       30.01F
OAKES            N/A     46  32  57 S10       30.03F
GWINNER        CLEAR     46  32  57 S8        30.05F
BUFFALO        NOT AVBL
WYNDMERE       NOT AVBL
 ***** THE ABOVE OBSERVATIONS ARE NON NWS ARE NOT QUALITY
       CONTROLLED AND MAY MIS-REPORT RAIN FOR SNOW...
$$

  *****  WEATHER ACROSS NORTHERN MINNESOTA  *****

CITY           SKY/WX    TMP DP  RH WIND       PRES   REMARKS
FLAG ISLAND    CLOUDY    37  34  87 CALM      30.04S
WARROAD        CLOUDY    37  34  87 W9        30.06S
ROSEAU         CLOUDY    37  32  81 W7        30.05F
HALLOCK          N/A     39  28  65 SW9       30.05F
THF RVR FALLS  CLOUDY    36  28  75 SW6       30.07F
HALSTAD          N/A     40  27  58 S10         N/A
FOSSTON        CLOUDY    36  30  80 SW9       30.08F
BAUDETTE       CLOUDY    37  33  85 SW8       30.05F
WASKISH        CLOUDY    37  36  93 SW6       30.06F
CROOKSTON      PTSUNNY   39  28  65 SW6       30.07F
$$
  *****  WEATHER ACROSS CENTRAL AND WEST MINNESOTA  *****

CITY           SKY/WX    TMP DP  RH WIND       PRES   REMARKS
BEMIDJI        CLOUDY    35  31  85 W6        30.07F
PARK RAPIDS    CLOUDY    37  30  75 W7        30.07F
WADENA         CLOUDY    36  30  80 CALM      30.08S
DETROIT LAKES  CLOUDY    36  30  80 SW6       30.08F
MOORHEAD       MOSUNNY   43  30  61 S8        30.08F
FERGUS FALLS   PTSUNNY   39  27  60 S3        30.09F
ELBOW LAKE     MOCLDY    37  29  72 SW3       30.09F
MORRIS MN      NOT AVBL
STAPLES        CLOUDY    37  30  75 SW3       30.08F
WHEATON        SUNNY     39  28  65 SE7       30.10F
$$
  *****  WEATHER ELSEWHERE ACROSS MINNESOTA  *****

CITY           SKY/WX    TMP DP  RH WIND       PRES   REMARKS
DULUTH         CLOUDY    41  33  73 W10       30.05F
INTRNTL FALLS  CLOUDY    38  35  89 W6        30.04S
ELY            CLOUDY    37  34  87 W8        30.04S
CLOQUET        CLOUDY    41  32  70 W7        30.07S
BRAINERD       CLOUDY    37  31  78 W5        30.09F
HIBBING        CLOUDY    40  32  73 SW6       30.05F
ALEXANDRIA     PTSUNNY   38  30  73 S6        30.09F
SAINT CLOUD    CLOUDY    42  32  67 W6        30.11F
MINNEAPOLIS    CLOUDY    41  31  67 W7        30.14S
$$

  *****  WEATHER ACROSS SOUTH DAKOTA  *****

CITY           SKY/WX    TMP DP  RH WIND       PRES   REMARKS
SIOUX FALLS    MOSUNNY   49  32  52 S7        30.09F
BROOKINGS      NOT AVBL
WATERTOWN      SUNNY     44  32  62 S7        30.06F
HURON          SUNNY     50  29  44 S12       30.05F
SISSETON         N/A     44  31  60 VRB5      30.05F
ABERDEEN       MOSUNNY   49  30  48 S12       30.04F
MITCHELL       SUNNY     53  31  42 S9        30.06F
PIERRE         MOSUNNY   59  28  30 SE10      29.96F
MOBRIDGE       CLOUDY    54  30  40 S12       29.94F
RAPID CITY     MOSUNNY   67  28  23 NE8       29.95F
$$

  *****  SOME WEATHER IN NEARBY STATES *****

CITY           SKY/WX    TMP DP  RH WIND       PRES   REMARKS
GLASGOW MT     MOSUNNY   58  37  45 W16       29.89R
GREAT FALLS MT SUNNY     60  31  33 W24G31    30.03R
CHEYENNE WY    SUNNY     64  17  16 W20G28    30.12F
SCOTTSBLUFF NE SUNNY     70  21  15 NW16G25   30.00F
OMAHA NE       SUNNY     54  30  40 CALM      30.16F
DES MOINES IA  MOSUNNY   53  34  48 W3        30.16F
DAVENPORT IA   MOSUNNY   51  30  44 NW12      30.13F
CHICAGO IL     CLOUDY    47  32  56 NW13      30.08S
EAU CLAIRE WI  PTSUNNY   45  31  58 W8        30.10S
LA CROSSE WI   SUNNY     49  32  52 NW7       30.13R
$$

  *****  SOME NATIONAL WEATHER *****

CITY           SKY/WX    TMP DP  RH WIND       PRES   REMARKS
LA GUARDIA NY  CLOUDY    65  45  48 NW20      29.86R
RALEIGH NC     PTSUNNY   78  57  48 SW9       29.92F
ATLANTA GA     PTSUNNY   69  62  78 W12       30.01F
NEW ORLEANS LA MOSUNNY   83  63  50 N7        30.01F
OKLAHOMA CITY  SUNNY     72  32  23 S8        30.18F
ALBUQUERQUE NM SUNNY     69  22  16 CALM      30.25F
SALT LAKE CITY MOSUNNY   63  18  17 NW6       30.26F
LOS ANGELES CA SUNNY     76  66  73 SW6       30.01F
BOISE ID       PTSUNNY   60  39  45 N3        30.22F
SEATTLE WA     PTSUNNY   60  51  72 S9        30.15R
$$

*** WEATHER ACROSS MANITOBA...SASKATCHEWAN AND ONTARIO ***
                ***ONTARIO***

CITY           SKY/WX    TMP DP  RH WIND       PRES   REMARKS
GERALDTON      PTSUNNY   32  28  86 NW7       29.95S
THUNDER BAY    PTSUNNY   43  32  65 NW12      30.02S
SIOUX LOOKOUT  CLOUDY    34  32  93 NW3       30.02S
TORONTO        LGT RAIN  48  39  71 W20       29.88R
BIG TROUT LK   FLURRIES  28  25  86 N7        29.99S WCI  21
PICKLE LAKE    FLURRIES  30  27  86 NW8       29.99R WCI  23
DRYDEN         CLOUDY    36  32  87 W7        30.02S
KENORA         NOT AVBL
$$
                *** MANITOBA***

CITY           SKY/WX    TMP DP  RH WIND       PRES   REMARKS
BRANDON        PTSUNNY   39  28  65 E10       29.95F
DAUPHIN        CLOUDY    34  30  86 SE10      29.97S
ISLAND LAKE    PTSUNNY   28  21  74 W6        30.03  WCI  22
PILOT MOUND      N/A     41  28  60 S12         N/A
THE PAS        FRZ DRZL  30  28  93 NE3       30.03S
THOMPSON       FLURRIES  27  21  80 NW6       30.04S WCI  20
WINNIPEG       CLOUDY    37  28  70 SW5       30.05F
LYNN LAKE      CLOUDY    30  21  69 N9        30.03S WCI  22
CHURCHILL      LGT SNOW  25  23  93 W10       30.05F FOG     WCI  15
GILLAM         PTSUNNY   25  21  86 W6        30.04S WCI  18
$$
                ***SASKATCHEWAN***

CITY           SKY/WX    TMP DP  RH WIND       PRES   REMARKS
ESTEVAN        PTSUNNY   46  32  57 SW10      29.83F
KINDERSLEY     CLOUDY    32  28  86 N7        29.95R
LLOYDMINSTER   CLOUDY    34  28  80 N8        29.99R
PRINCE ALBERT  CLOUDY    34  30  86 NE12      30.00R
REGINA         MOSUNNY   46  34  61 N6        29.84R
YORKTON        CLOUDY    36  30  80 SE7       29.90S



USA.gov is the U.S. government's official web portal to all federal, state and local government web resources and services.